When you browse on this site, cookies collect data to enhance your experience and personalize the content and advertising you see.
Visit our Privacy Policy to learn more. By continuing to use the site, you agree to this use of cookies and data.
  • Em Portugal
  • Lista de países
  • Para 7 dias
  • Temperatura da água
  • Mapas de satélite
  • Mapa do tempo
  • Widgets de tempo
  • user-avatar
    Iniciar Sessão

    Previsão horária em Budzisz

    Hoje, 19 Fevereiro, Terça-feira

    Tempo Temperatura Precipitação Vento Pressão Humidade
    00:00 +3°C° 0 mm 4 m/s 757 mmHg 86%
    01:00 +1°C° 0 mm 4 m/s 757 mmHg 85%
    02:00 +1°C° 0 mm 4 m/s 756 mmHg 85%
    03:00 +1°C° 0 mm 4 m/s 756 mmHg 84%
    04:00 0°C° 0 mm 4 m/s 755 mmHg 83%
    05:00 0°C° 0 mm 4 m/s 755 mmHg 83%
    06:00 0°C° 0 mm 4 m/s 754 mmHg 83%
    07:00 0°C° 0 mm 4 m/s 754 mmHg 83%
    08:00 +1°C° 0 mm 5 m/s 754 mmHg 79%
    09:00 +3°C° 0 mm 5 m/s 753 mmHg 75%
    10:00 +4°C° 0 mm 6 m/s 753 mmHg 71%
    11:00 +5°C° 0 mm 6 m/s 753 mmHg 69%
    12:00 +7°C° 0 mm 6 m/s 753 mmHg 67%
    13:00 +8°C° 0 mm 6 m/s 752 mmHg 65%
    14:00 +8°C° 0.1 mm 6 m/s 752 mmHg 69%
    15:00 +8°C° 0.1 mm 5 m/s 752 mmHg 73%
    16:00 +7°C° 0.1 mm 5 m/s 752 mmHg 77%
    17:00 +7°C° 0.2 mm 4 m/s 752 mmHg 80%
    18:00 +6°C° 0.2 mm 4 m/s 752 mmHg 82%
    19:00 +5°C° 0.2 mm 4 m/s 753 mmHg 84%
    20:00 +5°C° 0.1 mm 4 m/s 752 mmHg 83%
    21:00 +5°C° 0.1 mm 4 m/s 752 mmHg 82%
    22:00 +5°C° 0.1 mm 5 m/s 752 mmHg 81%
    23:00 +5°C° 0 mm 5 m/s 752 mmHg 82%

    Amanhã, 20 Fevereiro, Quarta-feira

    Tempo Temperatura Precipitação Vento Pressão Humidade
    00:00 +3°C° 0 mm 5 m/s 752 mmHg 82%
    01:00 +3°C° 0 mm 6 m/s 752 mmHg 83%
    02:00 +3°C° 0.1 mm 6 m/s 752 mmHg 82%
    03:00 +3°C° 0.1 mm 6 m/s 752 mmHg 81%
    04:00 +3°C° 0.1 mm 6 m/s 752 mmHg 79%
    05:00 +3°C° 0.1 mm 6 m/s 752 mmHg 79%
    06:00 +3°C° 0.1 mm 6 m/s 753 mmHg 79%
    07:00 +2°C° 0.1 mm 6 m/s 753 mmHg 78%
    08:00 +3°C° 0 mm 6 m/s 753 mmHg 76%
    09:00 +3°C° 0 mm 7 m/s 754 mmHg 73%
    10:00 +2°C° 0 mm 8 m/s 754 mmHg 71%
    11:00 +4°C° 0 mm 8 m/s 755 mmHg 70%
    12:00 +4°C° 0 mm 8 m/s 755 mmHg 69%
    13:00 +4°C° 0 mm 8 m/s 756 mmHg 69%
    14:00 +4°C° 0 mm 7 m/s 756 mmHg 70%
    15:00 +4°C° 0 mm 7 m/s 756 mmHg 71%
    16:00 +4°C° 0 mm 6 m/s 757 mmHg 72%
    17:00 +3°C° 0 mm 6 m/s 757 mmHg 74%
    18:00 +3°C° 0 mm 5 m/s 758 mmHg 77%
    19:00 +3°C° 0 mm 4 m/s 758 mmHg 79%
    20:00 +3°C° 0 mm 4 m/s 759 mmHg 83%
    21:00 +1°C° 0 mm 4 m/s 759 mmHg 87%
    22:00 +2°C° 0 mm 3 m/s 759 mmHg 90%
    23:00 +1°C° 0 mm 3 m/s 759 mmHg 92%

    Depois de amanhã, 21 Fevereiro, Quinta-feira

    Tempo Temperatura Precipitação Vento Pressão Humidade
    00:00 +1°C° 0 mm 3 m/s 759 mmHg 93%
    01:00 +2°C° 0 mm 2 m/s 759 mmHg 95%
    02:00 +2°C° 0.2 mm 2 m/s 759 mmHg 95%
    03:00 +2°C° 0.2 mm 2 m/s 759 mmHg 95%
    04:00 +3°C° 0.2 mm 2 m/s 759 mmHg 96%
    05:00 +3°C° 0.4 mm 2 m/s 759 mmHg 96%
    06:00 +3°C° 0.4 mm 2 m/s 758 mmHg 97%
    07:00 +3°C° 0.4 mm 2 m/s 758 mmHg 97%
    08:00 +4°C° 0.4 mm 2 m/s 758 mmHg 96%
    09:00 +3°C° 0.4 mm 3 m/s 758 mmHg 95%
    10:00 +4°C° 0.4 mm 3 m/s 758 mmHg 93%
    11:00 +4°C° 0.3 mm 3 m/s 758 mmHg 93%
    12:00 +5°C° 0.3 mm 3 m/s 758 mmHg 92%
    13:00 +6°C° 0.3 mm 2 m/s 758 mmHg 92%
    14:00 +6°C° 0.6 mm 2 m/s 758 mmHg 93%
    15:00 +5°C° 0.6 mm 2 m/s 758 mmHg 94%
    16:00 +6°C° 0.6 mm 1 m/s 758 mmHg 95%
    17:00 +4°C° 0.3 mm 2 m/s 758 mmHg 94%
    18:00 +3°C° 0.3 mm 3 m/s 759 mmHg 93%
    19:00 +1°C° 0.3 mm 4 m/s 759 mmHg 92%
    20:00 0°C° 0.2 mm 4 m/s 760 mmHg 90%
    21:00 -1°C° 0.2 mm 5 m/s 760 mmHg 89%
    22:00 -1°C° 0.2 mm 5 m/s 761 mmHg 88%
    23:00 -2°C° 0.1 mm 5 m/s 762 mmHg 87%

    22 Fevereiro, Sexta-feira

    Tempo Temperatura Precipitação Vento Pressão Humidade
    00:00 -2°C° 0.1 mm 5 m/s 763 mmHg 86%
    01:00 -3°C° 0.1 mm 4 m/s 764 mmHg 85%
    02:00 -3°C° 0 mm 4 m/s 765 mmHg 81%
    03:00 -4°C° 0 mm 4 m/s 765 mmHg 78%
    04:00 -4°C° 0 mm 4 m/s 766 mmHg 75%
    05:00 -4°C° 0 mm 4 m/s 767 mmHg 73%
    06:00 -4°C° 0 mm 4 m/s 768 mmHg 72%
    07:00 -5°C° 0 mm 4 m/s 770 mmHg 70%
    08:00 -5°C° 0 mm 5 m/s 770 mmHg 65%
    09:00 -5°C° 0 mm 5 m/s 771 mmHg 60%
    10:00 -5°C° 0 mm 5 m/s 772 mmHg 55%
    11:00 -3°C° 0 mm 4 m/s 773 mmHg 52%
    12:00 -3°C° 0 mm 4 m/s 773 mmHg 50%
    13:00 -3°C° 0 mm 4 m/s 774 mmHg 47%
    14:00 -2°C° 0 mm 3 m/s 775 mmHg 48%
    15:00 -2°C° 0 mm 3 m/s 775 mmHg 48%
    16:00 -2°C° 0 mm 3 m/s 775 mmHg 49%
    17:00 -3°C° 0 mm 2 m/s 776 mmHg 52%
    18:00 -3°C° 0 mm 2 m/s 776 mmHg 56%
    19:00 -4°C° 0 mm 2 m/s 777 mmHg 59%
    20:00 -2°C° 0 mm 1 m/s 777 mmHg 58%
    21:00 -2°C° 0 mm 1 m/s 777 mmHg 57%
    22:00 -2°C° 0 mm 1 m/s 777 mmHg 57%
    23:00 -2°C° 0 mm 1 m/s 777 mmHg 56%

    23 Fevereiro, Sábado

    Tempo Temperatura Precipitação Vento Pressão Humidade
    00:00 -2°C° 0 mm 1 m/s 777 mmHg 55%
    01:00 -2°C° 0 mm 1 m/s 777 mmHg 54%
    02:00 -2°C° 0 mm 1 m/s 777 mmHg 54%
    03:00 -4°C° 0 mm 2 m/s 776 mmHg 53%
    04:00 -4°C° 0 mm 2 m/s 776 mmHg 53%
    05:00 -3°C° 0 mm 2 m/s 776 mmHg 52%
    06:00 -4°C° 0 mm 3 m/s 776 mmHg 50%
    07:00 -2°C° 0 mm 3 m/s 775 mmHg 49%
    08:00 -2°C° 0 mm 3 m/s 775 mmHg 49%
    09:00 -1°C° 0 mm 3 m/s 775 mmHg 48%
    10:00 -1°C° 0 mm 3 m/s 775 mmHg 48%
    11:00 0°C° 0 mm 3 m/s 774 mmHg 48%
    12:00 0°C° 0 mm 3 m/s 774 mmHg 47%
    13:00 +1°C° 0 mm 3 m/s 774 mmHg 47%
    14:00 +1°C° 0 mm 3 m/s 773 mmHg 51%
    15:00 +1°C° 0 mm 3 m/s 773 mmHg 56%
    16:00 +1°C° 0 mm 3 m/s 772 mmHg 60%
    17:00 +2°C° 0 mm 2 m/s 772 mmHg 68%
    18:00 +1°C° 0 mm 2 m/s 772 mmHg 76%
    19:00 +1°C° 0 mm 2 m/s 772 mmHg 84%
    20:00 +1°C° 0 mm 2 m/s 772 mmHg 88%
    21:00 +1°C° 0 mm 2 m/s 772 mmHg 91%
    22:00 +1°C° 0 mm 2 m/s 772 mmHg 95%
    23:00 +1°C° 0 mm 2 m/s 772 mmHg 95%

    24 Fevereiro, Domingo

    Tempo Temperatura Precipitação Vento Pressão Humidade
    00:00 +1°C° 0 mm 2 m/s 772 mmHg 96%
    01:00 +2°C° 0 mm 1 m/s 772 mmHg 96%
    02:00 +2°C° 0 mm 1 m/s 772 mmHg 96%
    03:00 +1°C° 0 mm 2 m/s 772 mmHg 96%
    04:00 +1°C° 0 mm 2 m/s 772 mmHg 96%
    05:00 +1°C° 0 mm 2 m/s 772 mmHg 96%
    06:00 +2°C° 0 mm 1 m/s 772 mmHg 97%
    07:00 +2°C° 0 mm 1 m/s 772 mmHg 97%
    08:00 +3°C° 0 mm 1 m/s 772 mmHg 95%
    09:00 +3°C° 0 mm 1 m/s 772 mmHg 94%
    10:00 +3°C° 0 mm 2 m/s 773 mmHg 93%
    11:00 +4°C° 0 mm 2 m/s 772 mmHg 90%
    12:00 +5°C° 0 mm 2 m/s 772 mmHg 86%
    13:00 +6°C° 0 mm 2 m/s 772 mmHg 83%
    14:00 +5°C° 0 mm 2 m/s 772 mmHg 86%
    15:00 +5°C° 0 mm 2 m/s 771 mmHg 88%
    16:00 +5°C° 0 mm 2 m/s 771 mmHg 90%
    17:00 +3°C° 0 mm 3 m/s 771 mmHg 92%
    18:00 +2°C° 0 mm 3 m/s 770 mmHg 93%
    19:00 +2°C° 0 mm 3 m/s 770 mmHg 95%
    20:00 +2°C° 0 mm 3 m/s 770 mmHg 95%
    21:00 +2°C° 0 mm 3 m/s 769 mmHg 95%
    22:00 +2°C° 0 mm 3 m/s 769 mmHg 96%
    23:00 +3°C° 0 mm 3 m/s 769 mmHg 96%
    Mostrar mais